Langdon, ND

8:38 AM CDT on April 28, 2017 (GMT -0500)
Langdon

Weather History for KD55 - November, 2013

Change the Weather History Date:

Saturday, November 2, 2013

  Actual Average (KDVL) Record (KDVL)
Temperature  
Mean Temperature 37 °F -  
Max Temperature 51 °F 41 °F 67 °F (1983)
Min Temperature 23 °F 25 °F -4 °F (1984)
Degree Days  
Heating Degree Days 28    
Moisture  
Dew Point 29 °F    
Average Humidity 79    
Maximum Humidity 100    
Minimum Humidity 47    
Precipitation  
Precipitation 0.00 in - - ()
Sea Level Pressure  
Sea Level Pressure 29.93 in    
Wind  
Wind Speed 7 mph (WSW)    
Max Wind Speed 14 mph    
Max Gust Speed 16 mph    
Visibility 10 miles    
Events      
Averages and records for this station are not official NWS values.
T = Trace of Precipitation, MM = Missing Value Source: NWS Daily Summary

Daily Weather History Graph

Daily Weather History Graph

Search for Another Location

Airport or City:

Trip Planner

Search our weather history database for the weather conditions in past years. The results will help you decide how hot, cold, wet, or windy it might be!

Date:

Astronomy

Nov. 02, 2013 Rise Set
Actual Time 8:22 AM CDT 6:11 PM CDT
Civil Twilight 7:49 AM CDT 6:44 PM CDT
Nautical Twilight 7:11 AM CDT 7:21 PM CDT
Astronomical Twilight 6:35 AM CDT 7:58 PM CDT
Moon 7:17 AM CDT (11/2) 5:45 PM CDT (11/2)
Length of Visible Light 10h 55m
Length of Day
9h 48m
Waning Crescent, 1% of the Moon is Illuminated
Nov 2
Waning Crescent
Nov 3
New
Nov 9
First Quarter
Nov 17
Full
Nov 25
Last Quarter

Hourly Weather History & Observations

Time (CDT) Temp. Windchill Dew Point Humidity Pressure Visibility Wind Dir Wind Speed Gust Speed Precip Events Conditions
12:15 AM 32.0 °F 27.5 °F 28.4 °F 87% 29.90 in 10.0 mi West 4.6 mph - N/A   Scattered Clouds
12:35 AM 32.0 °F 24.8 °F 30.2 °F 93% 29.89 in 10.0 mi WNW 8.1 mph - N/A   Overcast
12:55 AM 32.0 °F 28.7 °F 30.2 °F 93% 29.90 in 10.0 mi WNW 3.5 mph - N/A   Overcast
1:15 AM 32.0 °F 27.5 °F 30.2 °F 93% 29.90 in 10.0 mi West 4.6 mph - N/A   Overcast
1:35 AM 32.0 °F 24.8 °F 30.2 °F 93% 29.91 in 10.0 mi WNW 8.1 mph - N/A   Overcast
1:55 AM 32.0 °F 26.4 °F 30.2 °F 93% 29.91 in 10.0 mi West 5.8 mph - N/A   Overcast
2:15 AM 32.0 °F 25.6 °F 30.2 °F 93% 29.91 in 10.0 mi West 6.9 mph - N/A   Overcast
2:35 AM 32.0 °F 25.6 °F 32.0 °F 100% 29.92 in 10.0 mi WNW 6.9 mph - N/A   Overcast
2:55 AM 35.6 °F 29.2 °F 32.0 °F 87% 29.92 in 10.0 mi WNW 8.1 mph - N/A   Overcast
3:15 AM 35.6 °F 29.2 °F 32.0 °F 87% 29.93 in 10.0 mi WNW 8.1 mph - N/A   Overcast
3:35 AM 32.0 °F 25.6 °F 28.4 °F 87% 29.93 in 10.0 mi West 6.9 mph - N/A   Scattered Clouds
3:55 AM 28.4 °F 21.2 °F 28.4 °F 100% 29.93 in 10.0 mi WNW 6.9 mph - N/A   Clear
4:15 AM 28.4 °F 21.2 °F 26.6 °F 93% 29.94 in 10.0 mi WNW 6.9 mph - N/A   Clear
4:35 AM 28.4 °F 22.2 °F 28.4 °F 100% 29.94 in 10.0 mi NW 5.8 mph - N/A   Clear
4:55 AM 28.4 °F 21.2 °F 26.6 °F 93% 29.94 in 10.0 mi WNW 6.9 mph - N/A   Clear
5:15 AM 28.4 °F 19.7 °F 26.6 °F 93% 29.94 in 10.0 mi WNW 9.2 mph - N/A   Clear
5:35 AM 26.6 °F 19.1 °F 24.8 °F 93% 29.94 in 10.0 mi WNW 6.9 mph - N/A   Clear
5:55 AM 24.8 °F 17.9 °F 23.0 °F 93% 29.95 in 10.0 mi West 5.8 mph - N/A   Clear
6:15 AM 24.8 °F 19.1 °F 23.0 °F 93% 29.95 in 10.0 mi West 4.6 mph - N/A   Clear
6:35 AM 23.0 °F 15.8 °F 21.2 °F 93% 29.96 in 10.0 mi West 5.8 mph - N/A   Clear
6:55 AM 23.0 °F 17.0 °F 21.2 °F 93% 29.96 in 10.0 mi West 4.6 mph - N/A   Clear
7:15 AM 23.0 °F 17.0 °F 21.2 °F 93% 29.95 in 10.0 mi WSW 4.6 mph - N/A   Clear
7:35 AM 23.0 °F 14.7 °F 19.4 °F 86% 29.95 in 10.0 mi West 6.9 mph - N/A   Clear
7:55 AM 23.0 °F 15.8 °F 21.2 °F 93% 29.95 in 10.0 mi West 5.8 mph - N/A   Clear
8:15 AM 24.8 °F 17.9 °F 23.0 °F 93% 29.95 in 9.0 mi West 5.8 mph - N/A   Clear
8:35 AM 24.8 °F 16.9 °F 23.0 °F 93% 29.95 in 10.0 mi West 6.9 mph - N/A   Clear
8:55 AM 24.8 °F 20.5 °F 23.0 °F 93% 29.96 in 10.0 mi West 3.5 mph - N/A   Clear
9:15 AM 26.6 °F 18.2 °F 24.8 °F 93% 29.96 in 10.0 mi West 8.1 mph - N/A   Clear
9:35 AM 30.2 °F 22.6 °F 28.4 °F 93% 29.97 in 10.0 mi West 8.1 mph - N/A   Clear
9:55 AM 32.0 °F 24.8 °F 30.2 °F 93% 29.97 in 10.0 mi West 8.1 mph - N/A   Clear
10:15 AM 33.8 °F 27.0 °F 32.0 °F 93% 29.98 in 10.0 mi West 8.1 mph - N/A   Clear
10:35 AM 35.6 °F 29.2 °F 32.0 °F 87% 29.98 in 10.0 mi West 8.1 mph - N/A   Mostly Cloudy
10:55 AM 37.4 °F 30.8 °F 35.6 °F 93% 29.98 in 10.0 mi West 9.2 mph - N/A   Scattered Clouds
12:35 PM 48.2 °F - 33.8 °F 58% 29.97 in 10.0 mi West 9.2 mph - N/A   Clear
12:55 PM 48.2 °F - 33.8 °F 58% 29.97 in 10.0 mi West 9.2 mph - N/A   Clear
1:15 PM 48.2 °F - 35.6 °F 62% 29.97 in 10.0 mi WSW 9.2 mph - N/A   Clear
1:35 PM 50.0 °F - 33.8 °F 54% 29.96 in 10.0 mi WSW 10.4 mph - N/A   Clear
1:55 PM 50.0 °F - 32.0 °F 50% 29.95 in 10.0 mi West 8.1 mph 16.1 mph N/A   Clear
2:15 PM 50.0 °F - 33.8 °F 54% 29.95 in 10.0 mi WSW 10.4 mph - N/A   Clear
2:35 PM 50.0 °F - 33.8 °F 54% 29.94 in 10.0 mi WSW 9.2 mph - N/A   Clear
2:55 PM 50.0 °F - 33.8 °F 54% 29.94 in 10.0 mi West 9.2 mph - N/A   Clear
3:15 PM 50.0 °F - 32.0 °F 50% 29.93 in 10.0 mi WSW 5.8 mph - N/A   Scattered Clouds
3:35 PM 51.8 °F - 32.0 °F 47% 29.93 in 10.0 mi West 11.5 mph - N/A   Partly Cloudy
3:55 PM 50.0 °F - 32.0 °F 50% 29.93 in 10.0 mi WSW 13.8 mph - N/A   Partly Cloudy
4:15 PM 50.0 °F - 32.0 °F 50% 29.93 in 10.0 mi WSW 11.5 mph 16.1 mph N/A   Scattered Clouds
4:35 PM 50.0 °F - 32.0 °F 50% 29.93 in 10.0 mi WSW 13.8 mph - N/A   Partly Cloudy
4:55 PM 50.0 °F - 32.0 °F 50% 29.92 in 10.0 mi WSW 12.7 mph - N/A   Clear
5:15 PM 48.2 °F - 32.0 °F 54% 29.92 in 10.0 mi SW 9.2 mph - N/A   Clear
5:35 PM 46.4 °F 42.4 °F 32.0 °F 57% 29.91 in 10.0 mi SW 8.1 mph - N/A   Clear
5:55 PM 44.6 °F 40.2 °F 32.0 °F 61% 29.91 in 10.0 mi SSW 8.1 mph - N/A   Clear
6:15 PM 39.2 °F 34.2 °F 28.4 °F 65% 29.91 in 10.0 mi SW 6.9 mph - N/A   Clear
6:35 PM 35.6 °F 29.2 °F 28.4 °F 75% 29.91 in 10.0 mi SSW 8.1 mph - N/A   Clear
6:55 PM 35.6 °F 29.2 °F 26.6 °F 70% 29.91 in 10.0 mi SSW 8.1 mph - N/A   Clear
7:15 PM 32.0 °F 24.8 °F 26.6 °F 80% 29.91 in 10.0 mi South 8.1 mph - N/A   Clear
7:35 PM 32.0 °F 24.2 °F 26.6 °F 80% 29.91 in 10.0 mi SSW 9.2 mph - N/A   Clear
7:55 PM 32.0 °F 24.2 °F 24.8 °F 75% 29.91 in 10.0 mi South 9.2 mph - N/A   Clear
8:15 PM 30.2 °F 21.9 °F 24.8 °F 80% 29.91 in 10.0 mi South 9.2 mph - N/A   Clear
8:35 PM 32.0 °F 24.2 °F 26.6 °F 80% 29.91 in 10.0 mi South 9.2 mph - N/A   Clear
8:55 PM 32.0 °F 23.6 °F 26.6 °F 80% 29.91 in 10.0 mi South 10.4 mph - N/A   Clear
9:15 PM 32.0 °F 24.2 °F 26.6 °F 80% 29.90 in 10.0 mi South 9.2 mph - N/A   Clear
9:35 PM 32.0 °F 24.2 °F 28.4 °F 87% 29.90 in 10.0 mi South 9.2 mph - N/A   Clear
9:55 PM 32.0 °F 23.6 °F 28.4 °F 87% 29.90 in 10.0 mi South 10.4 mph - N/A   Clear
10:15 PM 32.0 °F 24.2 °F 26.6 °F 80% 29.90 in 10.0 mi South 9.2 mph - N/A   Clear
10:35 PM 32.0 °F 23.6 °F 26.6 °F 80% 29.90 in 10.0 mi South 10.4 mph - N/A   Clear
10:55 PM 32.0 °F 24.2 °F 28.4 °F 87% 29.90 in 10.0 mi South 9.2 mph - N/A   Clear
11:15 PM 33.8 °F 25.8 °F 28.4 °F 81% 29.89 in 10.0 mi SSE 10.4 mph - N/A   Clear
11:35 PM 35.6 °F 28.6 °F 28.4 °F 75% 29.89 in 10.0 mi South 9.2 mph - N/A   Clear
11:55 PM 37.4 °F 30.8 °F 28.4 °F 70% 29.88 in 10.0 mi South 9.2 mph - N/A   Scattered Clouds